Time,TemperatureF,DewpointF,PressureIn,WindDirection,WindDirectionDegrees,WindSpeedMPH,WindSpeedGustMPH,Humidity,HourlyPrecipIn,Conditions,Clouds,dailyrainin,SoftwareType,DateUTC
2013-05-13 04:32:00,56.0,40.0,-100.00,NW,310,2.0,3.0,55,-99.99,,,0.00,,2013-05-13 10:32:00,
2013-05-13 04:42:00,56.0,40.0,-100.00,NW,310,2.0,3.0,55,-99.99,,,0.00,,2013-05-13 10:42:00,
2013-05-13 04:52:00,56.0,40.0,-100.00,NW,310,2.0,3.0,55,-99.99,,,0.00,,2013-05-13 10:52:00,
2013-05-13 05:12:00,56.0,40.0,-100.00,WNW,290,4.0,8.0,56,-99.99,,,0.00,,2013-05-13 11:12:00,
2013-05-13 05:21:00,56.0,40.0,-100.00,WNW,290,4.0,8.0,56,-99.99,,,0.00,,2013-05-13 11:21:00,
2013-05-13 05:32:00,57.0,41.0,-100.00,NW,305,4.0,6.0,55,-99.99,,,0.00,,2013-05-13 11:32:00,
2013-05-13 05:42:00,57.0,41.0,-100.00,NW,305,4.0,6.0,55,-99.99,,,0.00,,2013-05-13 11:42:00,
2013-05-13 05:51:00,57.0,41.0,-100.00,NW,305,4.0,6.0,55,-99.99,,,0.00,,2013-05-13 11:51:00,
2013-05-13 06:11:00,56.0,41.0,-100.00,WNW,285,2.0,4.0,56,-99.99,,,0.00,,2013-05-13 12:11:00,
2013-05-13 06:21:00,56.0,41.0,-100.00,WNW,285,2.0,4.0,56,-99.99,,,0.00,,2013-05-13 12:21:00,
2013-05-13 06:32:00,56.0,40.0,-100.00,WNW,295,4.0,6.0,56,-99.99,,,0.00,,2013-05-13 12:32:00,
2013-05-13 06:42:00,56.0,40.0,-100.00,WNW,295,4.0,6.0,56,-99.99,,,0.00,,2013-05-13 12:42:00,
2013-05-13 06:51:00,56.0,40.0,-100.00,WNW,295,4.0,6.0,56,-99.99,,,0.00,,2013-05-13 12:51:00,
2013-05-13 07:11:00,57.0,42.0,-100.00,West,265,3.0,6.0,57,-99.99,,,0.00,,2013-05-13 13:11:00,
2013-05-13 07:21:00,57.0,42.0,-100.00,West,265,3.0,6.0,57,-99.99,,,0.00,,2013-05-13 13:21:00,
2013-05-13 07:31:00,57.0,43.0,-100.00,West,280,4.0,7.0,60,-99.99,,,0.00,,2013-05-13 13:31:00,
2013-05-13 07:41:00,57.0,43.0,-100.00,West,280,4.0,7.0,60,-99.99,,,0.00,,2013-05-13 13:41:00,
2013-05-13 07:52:00,57.0,43.0,-100.00,West,280,4.0,7.0,60,-99.99,,,0.00,,2013-05-13 13:52:00,
2013-05-13 08:11:00,58.0,44.0,-100.00,West,275,3.0,5.0,61,-99.99,,,0.00,,2013-05-13 14:11:00,
2013-05-13 08:22:00,58.0,44.0,-100.00,West,275,3.0,5.0,61,-99.99,,,0.00,,2013-05-13 14:22:00,
2013-05-13 08:31:00,61.0,47.0,-100.00,WNW,300,4.0,5.0,59,-99.99,,,0.00,,2013-05-13 14:31:00,
2013-05-13 08:41:00,61.0,47.0,-100.00,WNW,300,4.0,5.0,59,-99.99,,,0.00,,2013-05-13 14:41:00,
2013-05-13 08:51:00,61.0,47.0,-100.00,WNW,300,4.0,5.0,59,-99.99,,,0.00,,2013-05-13 14:51:00,
2013-05-13 09:11:00,65.0,47.0,-100.00,WSW,255,4.0,8.0,53,-99.99,,,0.00,,2013-05-13 15:11:00,
2013-05-13 09:21:00,65.0,47.0,-100.00,WSW,255,4.0,8.0,53,-99.99,,,0.00,,2013-05-13 15:21:00,
2013-05-13 09:31:00,67.0,47.0,-100.00,WNW,285,4.0,9.0,49,-99.99,,,0.00,,2013-05-13 15:31:00,
2013-05-13 09:42:00,67.0,47.0,-100.00,WNW,285,4.0,9.0,49,-99.99,,,0.00,,2013-05-13 15:42:00,
2013-05-13 09:52:00,67.0,47.0,-100.00,WNW,285,4.0,9.0,49,-99.99,,,0.00,,2013-05-13 15:52:00,
2013-05-13 10:11:00,68.0,47.0,-100.00,West,260,6.0,9.0,48,-99.99,,,0.00,,2013-05-13 16:11:00,
2013-05-13 10:21:00,68.0,47.0,-100.00,West,260,6.0,9.0,48,-99.99,,,0.00,,2013-05-13 16:21:00,
2013-05-13 10:33:00,70.0,49.0,-100.00,West,280,9.0,12.0,47,-99.99,,,0.00,,2013-05-13 16:33:00,
2013-05-13 10:42:00,70.0,49.0,-100.00,West,280,9.0,12.0,47,-99.99,,,0.00,,2013-05-13 16:42:00,
2013-05-13 10:52:00,70.0,49.0,-100.00,West,280,9.0,12.0,47,-99.99,,,0.00,,2013-05-13 16:52:00,
2013-05-13 11:12:00,70.0,49.0,-100.00,West,275,9.0,14.0,46,-99.99,,,0.00,,2013-05-13 17:12:00,
2013-05-13 11:21:00,70.0,49.0,-100.00,West,275,9.0,14.0,46,-99.99,,,0.00,,2013-05-13 17:21:00,
2013-05-13 11:32:00,72.0,50.0,-100.00,West,265,7.0,16.0,45,-99.99,,,0.00,,2013-05-13 17:32:00,
2013-05-13 11:42:00,72.0,50.0,-100.00,West,265,7.0,16.0,45,-99.99,,,0.00,,2013-05-13 17:42:00,
2013-05-13 11:54:00,72.0,50.0,-100.00,West,265,7.0,16.0,45,-99.99,,,0.00,,2013-05-13 17:54:00,
2013-05-13 12:12:00,73.0,50.0,-100.00,West,280,9.0,17.0,43,-99.99,,,0.00,,2013-05-13 18:12:00,
2013-05-13 12:23:00,73.0,50.0,-100.00,West,280,9.0,17.0,43,-99.99,,,0.00,,2013-05-13 18:23:00,
2013-05-13 12:51:00,75.0,50.0,-100.00,West,260,7.0,12.0,41,-99.99,,,0.00,,2013-05-13 18:51:00,
2013-05-13 13:11:00,77.0,49.0,-100.00,WNW,300,4.0,14.0,38,-99.99,,,0.00,,2013-05-13 19:11:00,
2013-05-13 13:21:00,77.0,49.0,-100.00,WNW,300,4.0,14.0,38,-99.99,,,0.00,,2013-05-13 19:21:00,
2013-05-13 13:32:00,79.0,49.0,-100.00,WSW,255,3.0,11.0,35,-99.99,,,0.00,,2013-05-13 19:32:00,
2013-05-13 13:43:00,79.0,49.0,-100.00,WSW,255,3.0,11.0,35,-99.99,,,0.00,,2013-05-13 19:43:00,
2013-05-13 13:52:00,79.0,49.0,-100.00,WSW,255,3.0,11.0,35,-99.99,,,0.00,,2013-05-13 19:52:00,
2013-05-13 14:33:00,80.0,48.0,-100.00,West,275,5.0,11.0,33,-99.99,,,0.00,,2013-05-13 20:33:00,
2013-05-13 14:44:00,80.0,48.0,-100.00,West,275,5.0,11.0,33,-99.99,,,0.00,,2013-05-13 20:44:00,
2013-05-13 14:53:00,80.0,48.0,-100.00,West,275,5.0,11.0,33,-99.99,,,0.00,,2013-05-13 20:53:00,
2013-05-13 15:14:00,79.0,48.0,-100.00,West,280,7.0,13.0,33,-99.99,,,0.00,,2013-05-13 21:14:00,
2013-05-13 15:23:00,79.0,48.0,-100.00,West,280,7.0,13.0,33,-99.99,,,0.00,,2013-05-13 21:23:00,
2013-05-13 15:33:00,81.0,48.0,-100.00,NW,305,4.0,17.0,32,-99.99,,,0.00,,2013-05-13 21:33:00,
2013-05-13 15:43:00,81.0,48.0,-100.00,NW,305,4.0,17.0,32,-99.99,,,0.00,,2013-05-13 21:43:00,
2013-05-13 15:53:00,81.0,48.0,-100.00,NW,305,4.0,17.0,32,-99.99,,,0.00,,2013-05-13 21:53:00,
2013-05-13 16:12:00,81.0,48.0,-100.00,WSW,255,9.0,13.0,32,-99.99,,,0.00,,2013-05-13 22:12:00,
2013-05-13 16:23:00,81.0,48.0,-100.00,WSW,255,9.0,13.0,32,-99.99,,,0.00,,2013-05-13 22:23:00,
2013-05-13 16:32:00,79.0,46.0,-100.00,West,265,6.0,16.0,32,-99.99,,,0.00,,2013-05-13 22:32:00,
2013-05-13 16:42:00,79.0,46.0,-100.00,West,265,6.0,16.0,32,-99.99,,,0.00,,2013-05-13 22:42:00,
2013-05-13 16:52:00,79.0,46.0,-100.00,West,265,6.0,16.0,32,-99.99,,,0.00,,2013-05-13 22:52:00,
2013-05-13 17:12:00,76.0,43.0,-100.00,West,270,3.0,15.0,31,-99.99,,,0.00,,2013-05-13 23:12:00,
2013-05-13 17:23:00,76.0,43.0,-100.00,West,270,3.0,15.0,31,-99.99,,,0.00,,2013-05-13 23:23:00,
2013-05-13 17:33:00,77.0,44.0,-100.00,WNW,285,4.0,10.0,32,-99.99,,,0.00,,2013-05-13 23:33:00,
2013-05-13 17:42:00,77.0,44.0,-100.00,WNW,285,4.0,10.0,32,-99.99,,,0.00,,2013-05-13 23:42:00,
2013-05-13 17:53:00,77.0,44.0,-100.00,WNW,285,4.0,10.0,32,-99.99,,,0.00,,2013-05-13 23:53:00,
2013-05-13 18:12:00,80.0,47.0,-100.00,SE,145,1.0,6.0,31,-99.99,,,0.00,,2013-05-14 00:12:00,
2013-05-13 18:22:00,80.0,47.0,-100.00,SE,145,1.0,6.0,31,-99.99,,,0.00,,2013-05-14 00:22:00,